TimeCST,TemperatureF,Dew PointF,Humidity,Sea Level PressureIn,VisibilityMPH,Wind Direction,Wind SpeedMPH,Gust SpeedMPH,PrecipitationIn,Events,Conditions,WindDirDegrees,DateUTC
12:56 AM,12.9,1.0,59,30.11,10.0,North,11.5,-,N/A,,Clear,350,2014-02-27 06:56:00
1:56 AM,10.0,-0.9,61,30.14,10.0,NW,10.4,-,N/A,,Clear,320,2014-02-27 07:56:00
2:56 AM,8.1,-0.9,67,30.15,10.0,NW,6.9,-,N/A,,Clear,310,2014-02-27 08:56:00
3:56 AM,6.1,-2.0,69,30.15,10.0,NNW,8.1,-,N/A,,Clear,340,2014-02-27 09:56:00
4:56 AM,5.0,-2.0,73,30.17,10.0,North,9.2,-,N/A,,Clear,10,2014-02-27 10:56:00
5:56 AM,3.9,-2.9,73,30.18,10.0,NE,8.1,-,N/A,,Clear,50,2014-02-27 11:56:00
6:56 AM,1.9,-6.0,69,30.18,10.0,ENE,10.4,-,N/A,,Clear,60,2014-02-27 12:56:00
7:56 AM,3.0,-5.1,69,30.22,10.0,Calm,Calm,-,N/A,,Clear,0,2014-02-27 13:56:00
8:56 AM,3.9,-8.0,58,30.23,10.0,East,9.2,-,N/A,,Clear,80,2014-02-27 14:56:00
9:56 AM,6.1,-9.9,48,30.21,10.0,East,12.7,-,N/A,,Clear,90,2014-02-27 15:56:00
10:56 AM,7.0,-8.0,51,30.19,10.0,East,12.7,-,N/A,,Clear,90,2014-02-27 16:56:00
11:56 AM,9.0,-6.0,51,30.17,10.0,SE,6.9,-,N/A,,Clear,130,2014-02-27 17:56:00
12:56 PM,12.0,-2.9,51,30.13,10.0,East,9.2,-,N/A,,Clear,100,2014-02-27 18:56:00
1:56 PM,12.9,-2.0,51,30.09,10.0,ESE,12.7,-,N/A,,Clear,120,2014-02-27 19:56:00
2:56 PM,14.0,-0.9,52,30.06,10.0,SE,13.8,-,N/A,,Overcast,140,2014-02-27 20:56:00
3:56 PM,14.0,-0.9,52,30.04,10.0,ESE,12.7,-,N/A,,Clear,120,2014-02-27 21:56:00
4:56 PM,14.0,-0.9,52,30.01,10.0,ESE,15.0,-,N/A,,Clear,110,2014-02-27 22:56:00
5:56 PM,12.9,-0.9,54,30.01,10.0,ESE,9.2,-,N/A,,Clear,120,2014-02-27 23:56:00
6:56 PM,10.9,-0.9,59,30.00,10.0,ESE,11.5,-,N/A,,Clear,110,2014-02-28 00:56:00
7:56 PM,10.0,-0.9,61,29.99,10.0,ESE,12.7,-,N/A,,Clear,110,2014-02-28 01:56:00
8:56 PM,10.0,-0.0,64,29.96,10.0,ESE,15.0,-,N/A,,Overcast,120,2014-02-28 02:56:00
9:56 PM,10.9,1.0,64,29.94,10.0,ESE,11.5,-,N/A,,Overcast,120,2014-02-28 03:56:00
10:56 PM,12.0,1.0,61,29.90,10.0,ESE,15.0,-,N/A,,Overcast,120,2014-02-28 04:56:00
11:56 PM,12.0,1.9,64,29.89,10.0,ESE,13.8,-,N/A,,Mostly Cloudy,120,2014-02-28 05:56:00